Time,TemperatureF,DewpointF,PressureIn,WindDirection,WindDirectionDegrees,WindSpeedMPH,WindSpeedGustMPH,Humidity,HourlyPrecipIn,Conditions,Clouds,dailyrainin,SoftwareType,DateUTC
2013-05-29 00:02:00,71.0,56.0,29.88,WSW,251,4.0,11.0,60,0.00,,,0.00,,2013-05-29 05:02:00,
2013-05-29 00:12:00,71.0,56.0,29.88,WSW,251,4.0,11.0,60,0.00,,,0.00,,2013-05-29 05:12:00,
2013-05-29 00:22:00,71.0,56.0,29.88,WSW,251,4.0,11.0,60,0.00,,,0.00,,2013-05-29 05:22:00,
2013-05-29 00:32:00,69.0,57.0,29.90,SW,220,2.0,10.0,65,0.00,,,0.00,,2013-05-29 05:32:00,
2013-05-29 00:42:00,69.0,57.0,29.90,SW,220,2.0,10.0,65,0.00,,,0.00,,2013-05-29 05:42:00,
2013-05-29 00:52:00,68.0,56.0,29.90,SSW,205,2.0,10.0,66,0.00,,,0.00,,2013-05-29 05:52:00,
2013-05-29 01:01:00,68.0,57.0,29.90,SSW,209,2.0,6.0,67,0.00,,,0.00,,2013-05-29 06:01:00,
2013-05-29 01:11:00,68.0,57.0,29.90,SSW,209,2.0,6.0,67,0.00,,,0.00,,2013-05-29 06:11:00,
2013-05-29 01:21:00,68.0,57.0,29.90,SSW,209,2.0,6.0,67,0.00,,,0.00,,2013-05-29 06:21:00,
2013-05-29 01:31:00,67.0,56.0,29.90,SW,223,1.0,6.0,67,0.00,,,0.00,,2013-05-29 06:31:00,
2013-05-29 01:42:00,67.0,56.0,29.90,SW,223,1.0,6.0,67,0.00,,,0.00,,2013-05-29 06:42:00,
2013-05-29 01:51:00,67.0,56.0,29.89,SW,223,1.0,6.0,68,0.00,,,0.00,,2013-05-29 06:51:00,
2013-05-29 02:01:00,67.0,56.0,29.89,SW,223,2.0,6.0,67,0.00,,,0.00,,2013-05-29 07:01:00,
2013-05-29 02:11:00,67.0,56.0,29.89,SW,232,5.0,7.0,69,0.00,,,0.00,,2013-05-29 07:11:00,
2013-05-29 02:21:00,67.0,56.0,29.89,SW,232,5.0,7.0,69,0.00,,,0.00,,2013-05-29 07:21:00,
2013-05-29 02:34:00,67.0,56.0,29.89,SW,223,2.0,7.0,69,0.00,,,0.00,,2013-05-29 07:34:00,
2013-05-29 02:42:00,67.0,56.0,29.89,SW,223,2.0,7.0,69,0.00,,,0.00,,2013-05-29 07:42:00,
2013-05-29 02:52:00,67.0,57.0,29.89,SW,222,1.0,7.0,70,0.00,,,0.00,,2013-05-29 07:52:00,
2013-05-29 03:02:00,67.0,57.0,29.88,SSW,213,2.0,7.0,70,0.00,,,0.00,,2013-05-29 08:02:00,
2013-05-29 03:11:00,67.0,57.0,29.88,SW,220,5.0,7.0,70,0.00,,,0.00,,2013-05-29 08:11:00,
2013-05-29 03:21:00,67.0,57.0,29.88,SW,220,5.0,7.0,70,0.00,,,0.00,,2013-05-29 08:21:00,
2013-05-29 03:32:00,67.0,57.0,29.88,SW,220,5.0,7.0,70,0.00,,,0.00,,2013-05-29 08:32:00,
2013-05-29 03:42:00,67.0,57.0,29.88,SW,220,5.0,7.0,70,0.00,,,0.00,,2013-05-29 08:42:00,
2013-05-29 03:51:00,67.0,56.0,29.89,SSW,212,4.0,7.0,68,0.00,,,0.00,,2013-05-29 08:51:00,
2013-05-29 04:01:00,67.0,56.0,29.89,SSW,212,4.0,7.0,68,0.00,,,0.00,,2013-05-29 09:01:00,
2013-05-29 04:11:00,67.0,56.0,29.89,SSW,212,4.0,7.0,68,0.00,,,0.00,,2013-05-29 09:11:00,
2013-05-29 04:21:00,67.0,56.0,29.90,SW,236,2.0,11.0,69,0.00,,,0.00,,2013-05-29 09:21:00,
2013-05-29 04:33:00,67.0,57.0,29.90,South,188,0.0,11.0,70,0.00,,,0.00,,2013-05-29 09:33:00,
2013-05-29 04:42:00,67.0,57.0,29.90,South,188,0.0,11.0,70,0.00,,,0.00,,2013-05-29 09:42:00,
2013-05-29 04:52:00,66.0,57.0,29.90,South,186,1.0,11.0,72,0.00,,,0.00,,2013-05-29 09:52:00,
2013-05-29 05:02:00,66.0,57.0,29.90,South,186,1.0,11.0,72,0.00,,,0.00,,2013-05-29 10:02:00,
2013-05-29 05:12:00,64.0,56.0,29.92,South,186,0.0,10.0,75,0.00,,,0.00,,2013-05-29 10:12:00,
2013-05-29 05:22:00,64.0,56.0,29.92,South,186,0.0,10.0,75,0.00,,,0.00,,2013-05-29 10:22:00,
2013-05-29 05:32:00,64.0,56.0,29.92,South,186,0.0,10.0,75,0.00,,,0.00,,2013-05-29 10:32:00,
2013-05-29 05:42:00,64.0,56.0,29.92,South,186,0.0,10.0,75,0.00,,,0.00,,2013-05-29 10:42:00,
2013-05-29 05:53:00,63.0,57.0,29.93,South,186,1.0,3.0,82,0.00,,,0.00,,2013-05-29 10:53:00,
2013-05-29 06:02:00,63.0,57.0,29.93,South,186,0.0,2.0,82,0.00,,,0.00,,2013-05-29 11:02:00,
2013-05-29 06:12:00,63.0,57.0,29.93,South,186,0.0,2.0,82,0.00,,,0.00,,2013-05-29 11:12:00,
2013-05-29 06:22:00,63.0,57.0,29.93,South,186,0.0,2.0,82,0.00,,,0.00,,2013-05-29 11:22:00,
2013-05-29 06:32:00,64.0,59.0,29.96,SSW,208,0.0,2.0,83,0.00,,,0.00,,2013-05-29 11:32:00,
2013-05-29 06:42:00,64.0,59.0,29.96,SSW,208,0.0,2.0,83,0.00,,,0.00,,2013-05-29 11:42:00,
2013-05-29 06:51:00,64.0,59.0,29.96,SW,232,0.0,2.0,84,0.00,,,0.00,,2013-05-29 11:51:00,
2013-05-29 07:01:00,64.0,59.0,29.96,SW,232,0.0,2.0,84,0.00,,,0.00,,2013-05-29 12:01:00,
2013-05-29 07:11:00,64.0,59.0,29.96,SW,232,0.0,2.0,84,0.00,,,0.00,,2013-05-29 12:11:00,
2013-05-29 07:21:00,65.0,60.0,29.96,SSW,195,1.0,2.0,84,0.00,,,0.00,,2013-05-29 12:21:00,
2013-05-29 07:32:00,67.0,62.0,29.97,South,186,0.0,2.0,83,0.00,,,0.00,,2013-05-29 12:32:00,
2013-05-29 07:42:00,67.0,62.0,29.97,South,186,0.0,2.0,83,0.00,,,0.00,,2013-05-29 12:42:00,
2013-05-29 07:52:00,67.0,61.0,29.98,South,189,0.0,2.0,82,0.00,,,0.00,,2013-05-29 12:52:00,
2013-05-29 08:01:00,68.0,61.0,29.98,SSW,209,0.0,3.0,79,0.00,,,0.00,,2013-05-29 13:01:00,
2013-05-29 08:11:00,68.0,61.0,29.98,SSW,209,0.0,3.0,79,0.00,,,0.00,,2013-05-29 13:11:00,
2013-05-29 08:21:00,70.0,62.0,29.98,SW,216,4.0,5.0,77,0.00,,,0.00,,2013-05-29 13:21:00,
2013-05-29 08:31:00,71.0,62.0,29.98,SW,217,6.0,6.0,73,0.00,,,0.00,,2013-05-29 13:31:00,
2013-05-29 08:42:00,71.0,62.0,29.98,SW,217,6.0,6.0,73,0.00,,,0.00,,2013-05-29 13:42:00,
2013-05-29 08:52:00,72.0,63.0,29.98,SW,232,2.0,5.0,73,0.00,,,0.00,,2013-05-29 13:52:00,
2013-05-29 09:02:00,73.0,63.0,29.98,SW,223,7.0,10.0,72,0.00,,,0.00,,2013-05-29 14:02:00,
2013-05-29 09:11:00,73.0,63.0,29.98,SW,223,7.0,10.0,72,0.00,,,0.00,,2013-05-29 14:11:00,
2013-05-29 09:21:00,73.0,62.0,29.98,SW,216,6.0,10.0,68,0.00,,,0.00,,2013-05-29 14:21:00,
2013-05-29 09:32:00,73.0,62.0,29.98,SW,216,6.0,10.0,68,0.00,,,0.00,,2013-05-29 14:32:00,
2013-05-29 09:41:00,73.0,62.0,29.98,SW,216,6.0,10.0,68,0.00,,,0.00,,2013-05-29 14:41:00,
2013-05-29 09:52:00,75.0,63.0,29.97,SSE,161,5.0,12.0,67,0.00,,,0.00,,2013-05-29 14:52:00,
2013-05-29 10:01:00,76.0,65.0,29.96,SSE,160,5.0,14.0,68,0.00,,,0.00,,2013-05-29 15:01:00,
2013-05-29 10:11:00,77.0,65.0,29.96,WSW,253,2.0,13.0,67,0.00,,,0.00,,2013-05-29 15:11:00,
2013-05-29 10:21:00,77.0,65.0,29.96,WSW,253,2.0,13.0,67,0.00,,,0.00,,2013-05-29 15:21:00,
2013-05-29 10:33:00,77.0,65.0,29.96,WSW,253,2.0,13.0,67,0.00,,,0.00,,2013-05-29 15:33:00,
2013-05-29 10:42:00,77.0,65.0,29.96,WSW,253,2.0,13.0,67,0.00,,,0.00,,2013-05-29 15:42:00,
2013-05-29 10:53:00,79.0,67.0,29.96,SW,217,3.0,13.0,67,0.00,,,0.00,,2013-05-29 15:53:00,
2013-05-29 11:03:00,79.0,67.0,29.96,SW,217,3.0,13.0,67,0.00,,,0.00,,2013-05-29 16:03:00,
2013-05-29 11:12:00,79.0,67.0,29.96,SW,217,3.0,13.0,67,0.00,,,0.00,,2013-05-29 16:12:00,
2013-05-29 11:22:00,80.0,66.0,29.96,SSW,212,7.0,17.0,62,0.00,,,0.00,,2013-05-29 16:22:00,
2013-05-29 11:32:00,80.0,66.0,29.96,SSW,212,7.0,17.0,62,0.00,,,0.00,,2013-05-29 16:32:00,
2013-05-29 11:42:00,80.0,66.0,29.96,SSW,212,7.0,17.0,62,0.00,,,0.00,,2013-05-29 16:42:00,
2013-05-29 11:52:00,81.0,66.0,29.95,SW,216,11.0,17.0,61,0.00,,,0.00,,2013-05-29 16:52:00,
2013-05-29 12:02:00,81.0,64.0,29.95,SSW,209,6.0,24.0,57,0.00,,,0.00,,2013-05-29 17:02:00,
2013-05-29 12:12:00,81.0,64.0,29.95,SSW,209,6.0,24.0,57,0.00,,,0.00,,2013-05-29 17:12:00,
2013-05-29 12:22:00,81.0,64.0,29.95,SSW,209,6.0,24.0,57,0.00,,,0.00,,2013-05-29 17:22:00,
2013-05-29 12:32:00,81.0,65.0,29.94,SW,215,10.0,17.0,59,0.00,,,0.00,,2013-05-29 17:32:00,
2013-05-29 12:42:00,81.0,65.0,29.94,SW,215,10.0,17.0,59,0.00,,,0.00,,2013-05-29 17:42:00,
2013-05-29 12:52:00,82.0,65.0,29.94,SW,223,6.0,17.0,57,0.00,,,0.00,,2013-05-29 17:52:00,
2013-05-29 13:01:00,83.0,65.0,29.94,SSE,150,3.0,18.0,55,0.00,,,0.00,,2013-05-29 18:01:00,
2013-05-29 13:13:00,82.0,67.0,29.93,SW,219,11.0,18.0,61,0.00,,,0.00,,2013-05-29 18:13:00,
2013-05-29 13:22:00,82.0,67.0,29.93,SW,219,11.0,18.0,61,0.00,,,0.00,,2013-05-29 18:22:00,
2013-05-29 13:32:00,82.0,66.0,29.93,SSW,199,6.0,18.0,58,0.00,,,0.00,,2013-05-29 18:32:00,
2013-05-29 13:42:00,82.0,66.0,29.93,SSW,199,6.0,18.0,58,0.00,,,0.00,,2013-05-29 18:42:00,
2013-05-29 13:51:00,82.0,65.0,29.93,SW,222,6.0,18.0,57,0.00,,,0.00,,2013-05-29 18:51:00,
2013-05-29 14:02:00,82.0,65.0,29.93,SW,222,6.0,18.0,57,0.00,,,0.00,,2013-05-29 19:02:00,
2013-05-29 14:11:00,82.0,64.0,29.91,SW,233,13.0,18.0,55,0.00,,,0.00,,2013-05-29 19:11:00,
2013-05-29 14:21:00,82.0,64.0,29.91,SW,233,13.0,18.0,55,0.00,,,0.00,,2013-05-29 19:21:00,
2013-05-29 14:32:00,83.0,67.0,29.91,South,172,3.0,18.0,58,0.00,,,0.00,,2013-05-29 19:32:00,
2013-05-29 14:44:00,82.0,66.0,29.91,SSW,198,8.0,18.0,58,0.00,,,0.00,,2013-05-29 19:44:00,
2013-05-29 14:53:00,82.0,66.0,29.91,SSW,198,8.0,18.0,58,0.00,,,0.00,,2013-05-29 19:53:00,
2013-05-29 15:02:00,82.0,66.0,29.91,SSW,198,8.0,18.0,58,0.00,,,0.00,,2013-05-29 20:02:00,
2013-05-29 15:11:00,83.0,67.0,29.90,South,185,5.0,18.0,58,0.00,,,0.00,,2013-05-29 20:11:00,
2013-05-29 15:22:00,83.0,67.0,29.90,South,185,5.0,18.0,58,0.00,,,0.00,,2013-05-29 20:22:00,
2013-05-29 15:32:00,83.0,67.0,29.90,South,185,5.0,18.0,58,0.00,,,0.00,,2013-05-29 20:32:00,
2013-05-29 15:42:00,83.0,67.0,29.90,South,185,5.0,18.0,58,0.00,,,0.00,,2013-05-29 20:42:00,
2013-05-29 15:52:00,83.0,64.0,29.90,SSW,196,3.0,18.0,53,0.00,,,0.00,,2013-05-29 20:52:00,
2013-05-29 16:02:00,85.0,64.0,29.89,SW,222,7.0,17.0,50,0.00,,,0.00,,2013-05-29 21:02:00,
2013-05-29 16:12:00,85.0,64.0,29.89,SW,222,7.0,17.0,50,0.00,,,0.00,,2013-05-29 21:12:00,
2013-05-29 16:22:00,84.0,64.0,29.89,SSW,213,6.0,21.0,51,0.00,,,0.00,,2013-05-29 21:22:00,
2013-05-29 16:33:00,84.0,62.0,29.88,SSW,205,4.0,21.0,48,0.00,,,0.00,,2013-05-29 21:33:00,
2013-05-29 16:43:00,84.0,63.0,29.88,SW,217,10.0,21.0,50,0.00,,,0.00,,2013-05-29 21:43:00,
2013-05-29 16:53:00,84.0,63.0,29.88,SW,217,10.0,21.0,50,0.00,,,0.00,,2013-05-29 21:53:00,
2013-05-29 17:03:00,84.0,64.0,29.88,SSW,203,7.0,17.0,51,0.00,,,0.00,,2013-05-29 22:03:00,
2013-05-29 17:12:00,84.0,64.0,29.88,SSW,203,7.0,17.0,51,0.00,,,0.00,,2013-05-29 22:12:00,
2013-05-29 17:23:00,84.0,65.0,29.88,SSW,203,8.0,18.0,53,0.00,,,0.00,,2013-05-29 22:23:00,
2013-05-29 17:33:00,84.0,65.0,29.88,SSW,203,8.0,18.0,53,0.00,,,0.00,,2013-05-29 22:33:00,
2013-05-29 17:42:00,83.0,65.0,29.87,South,171,2.0,18.0,54,0.00,,,0.00,,2013-05-29 22:42:00,
2013-05-29 17:53:00,83.0,65.0,29.87,South,171,2.0,18.0,54,0.00,,,0.00,,2013-05-29 22:53:00,
2013-05-29 18:02:00,82.0,65.0,29.87,South,172,0.0,21.0,56,0.00,,,0.00,,2013-05-29 23:02:00,
2013-05-29 18:12:00,82.0,65.0,29.87,South,172,0.0,21.0,56,0.00,,,0.00,,2013-05-29 23:12:00,
2013-05-29 18:21:00,82.0,66.0,29.87,SSW,203,1.0,16.0,59,0.00,,,0.00,,2013-05-29 23:21:00,
2013-05-29 18:33:00,81.0,65.0,29.87,SSW,196,4.0,16.0,58,0.00,,,0.00,,2013-05-29 23:33:00,
2013-05-29 18:42:00,81.0,66.0,29.87,South,175,2.0,16.0,61,0.00,,,0.00,,2013-05-29 23:42:00,
2013-05-29 18:52:00,81.0,66.0,29.87,South,175,2.0,16.0,61,0.00,,,0.00,,2013-05-29 23:52:00,
2013-05-29 19:01:00,80.0,66.0,29.87,SW,216,4.0,15.0,62,0.00,,,0.00,,2013-05-30 00:01:00,
2013-05-29 19:11:00,80.0,66.0,29.87,SW,216,4.0,15.0,62,0.00,,,0.00,,2013-05-30 00:11:00,
2013-05-29 19:21:00,80.0,66.0,29.86,SW,215,2.0,12.0,63,0.00,,,0.00,,2013-05-30 00:21:00,
2013-05-29 19:31:00,80.0,67.0,29.86,SSW,209,3.0,12.0,64,0.00,,,0.00,,2013-05-30 00:31:00,
2013-05-29 19:42:00,80.0,67.0,29.86,SSW,209,3.0,12.0,64,0.00,,,0.00,,2013-05-30 00:42:00,
2013-05-29 19:52:00,79.0,66.0,29.86,WSW,237,4.0,12.0,65,0.00,,,0.00,,2013-05-30 00:52:00,
2013-05-29 20:01:00,79.0,67.0,29.85,SSW,208,1.0,10.0,66,0.00,,,0.00,,2013-05-30 01:01:00,
2013-05-29 20:11:00,78.0,67.0,29.85,SSW,203,2.0,10.0,69,0.00,,,0.00,,2013-05-30 01:11:00,
2013-05-29 20:21:00,78.0,67.0,29.85,SSW,203,2.0,10.0,69,0.00,,,0.00,,2013-05-30 01:21:00,
2013-05-29 20:31:00,78.0,67.0,29.85,SSW,203,2.0,10.0,69,0.00,,,0.00,,2013-05-30 01:31:00,
2013-05-29 20:41:00,78.0,67.0,29.85,SSW,203,2.0,10.0,69,0.00,,,0.00,,2013-05-30 01:41:00,
2013-05-29 20:52:00,77.0,68.0,29.85,WSW,237,2.0,11.0,73,0.00,,,0.00,,2013-05-30 01:52:00,
2013-05-29 21:01:00,77.0,68.0,29.85,WSW,237,2.0,11.0,73,0.00,,,0.00,,2013-05-30 02:01:00,
2013-05-29 21:11:00,77.0,68.0,29.85,WSW,237,2.0,11.0,73,0.00,,,0.00,,2013-05-30 02:11:00,
2013-05-29 21:21:00,75.0,67.0,29.85,WSW,239,0.0,2.0,77,0.00,,,0.00,,2013-05-30 02:21:00,
2013-05-29 21:32:00,75.0,67.0,29.85,SW,227,1.0,2.0,76,0.00,,,0.00,,2013-05-30 02:32:00,
2013-05-29 21:42:00,75.0,67.0,29.85,SW,227,1.0,2.0,76,0.00,,,0.00,,2013-05-30 02:42:00,
2013-05-29 21:52:00,75.0,67.0,29.85,SW,227,1.0,2.0,76,0.00,,,0.00,,2013-05-30 02:52:00,
2013-05-29 22:01:00,75.0,68.0,29.85,SW,232,2.0,6.0,78,0.00,,,0.00,,2013-05-30 03:01:00,
2013-05-29 22:11:00,74.0,67.0,29.85,SW,222,0.0,6.0,78,0.00,,,0.00,,2013-05-30 03:11:00,
2013-05-29 22:21:00,74.0,67.0,29.85,SW,222,0.0,6.0,78,0.00,,,0.00,,2013-05-30 03:21:00,
2013-05-29 22:33:00,75.0,68.0,29.85,SSW,213,2.0,5.0,78,0.00,,,0.00,,2013-05-30 03:33:00,
2013-05-29 22:43:00,75.0,68.0,29.85,SSW,213,2.0,5.0,78,0.00,,,0.00,,2013-05-30 03:43:00,
2013-05-29 22:53:00,75.0,67.0,29.85,SW,217,2.0,5.0,76,0.00,,,0.00,,2013-05-30 03:53:00,
2013-05-29 23:02:00,75.0,67.0,29.85,SW,217,2.0,5.0,76,0.00,,,0.00,,2013-05-30 04:02:00,
2013-05-29 23:12:00,75.0,67.0,29.85,SW,217,2.0,5.0,76,0.00,,,0.00,,2013-05-30 04:12:00,
2013-05-29 23:23:00,74.0,66.0,29.85,SW,229,2.0,7.0,75,0.00,,,0.00,,2013-05-30 04:23:00,
2013-05-29 23:32:00,74.0,66.0,29.86,SW,224,2.0,7.0,75,0.00,,,0.00,,2013-05-30 04:32:00,
2013-05-29 23:42:00,74.0,66.0,29.86,SW,224,2.0,7.0,75,0.00,,,0.00,,2013-05-30 04:42:00,
2013-05-29 23:53:00,75.0,66.0,29.86,SW,230,1.0,7.0,73,0.00,,,0.00,,2013-05-30 04:53:00,